Regional Weather Roundup
Issued by NWS Bismarck, ND

Home | Current Version | Previous Version | Text Only | Print | Product List | Glossary On
Versions: 1 2 3 4 5 6 7 8 9 10 11 12 13 14 15 16 17 18 19 20 21 22 23 24 25 26 27 28 29 30 31 32 33 34 35 36 37 38 39 40 41 42 43 44 45 46 47 48 49 50
000
ASUS43 KBIS 271410
RWRBIS

NWR BROADCAST TEXT
NATIONAL WEATHER SERVICE BISMARCK ND
800 AM CST MON FEB 27 2017

NOTE: "FAIR" INDICATES FEW OR NO CLOUDS BELOW 12,000 FEET WITH NO
SIGNIFICANT WEATHER AND/OR OBSTRUCTIONS TO VISIBILITY.


CITY           SKY/WX    TMP DP  RH WIND       PRES   REMARKS
WILLISTON      LGT SNOW  11   7  84 NE8       29.82S FOG     WCI  -1
MINOT          LGT SNOW  14   9  80 NW9       29.83R WCI   2
MINOT AFB      LGT SNOW  12   7  79 NW10      29.82S WCI  -1
BISMARCK       FAIR      11   8  88 NE7       29.80F WCI   0
DICKINSON      MOCLDY    18  14  84 E7        29.67S WCI   9
GARRISON         N/A     14  11  87 NE3       29.80S
HETTINGER ARPT FAIR      15  12  88 E8        29.68F WCI   4
JAMESTOWN      FAIR      19  16  88 CALM      29.83S
CARRINGTON     FAIR      12  10  92 CALM      29.85R
HAZEN          HVY SNOW N/A N/A N/A NE5       29.81F
MANDAN         FAIR      10   9  92 NE7       29.78F WCI   0
RUGBY            N/A      7   5  92 NW8       29.83S WCI  -6
STANLEY        FLURRIES   9   9 100 N9        29.81R WCI  -5
TIOGA          LGT SNOW   9   9 100 NE7       29.80S WCI  -3
WATFORD CITY   LGT SNOW  12   9  85 NE12      29.80R WCI  -2
$$

CITY           SKY/WX    TMP DP  RH WIND       PRES   REMARKS
GRAND FORKS    CLOUDY    13   6  74 S5        29.90R WCI   5
GRAND FORKS AF FAIR      12   7  81 CALM      29.89S
DEVILS LAKE    CLOUDY    11   8  88 SW5       29.84S WCI   3
FARGO          FAIR      17  13  84 CALM      29.90S
CAVALIER         N/A     14  10  85 S7        29.87R WCI   4
GRAFTON        FAIR      10   9  92 S7        29.90S WCI   0
GWINNER        FAIR      21  18  86 E6        29.87S WCI  14
ROLLA          PTSUNNY   12   7  79 NW9       29.80S WCI   0
$$

CITY           SKY/WX    TMP DP  RH WIND       PRES   REMARKS
ABERDEEN       CLOUDY    21  18  88 E7        29.83F WCI  12
MOBRIDGE       FAIR      23  18  81 E9        29.73F WCI  13
BUFFALO          N/A     22  19  89 SE6       29.58R WCI  14
RAPID CITY     FAIR      16   9  74 NE3       29.63S
GLASGOW        LGT SNOW  13   9  84 E7        29.76S FOG     WCI   3
SIDNEY         LGT SNOW  14  10  84 NE14      29.79S FOG     WCI  -1
WOLF POINT     LGT SNOW  14   8  77 E13       29.80S WCI   0
GLENDIVE       FLURRIES  16  13  88 NE16      29.71S WCI   1
MILES CITY     CLOUDY    22  18  85 NE16      29.64S WCI   8
BAKER          CLOUDY    22  18  85 SE16      29.63R WCI   8
$$

CITY           SKY/WX    TMP DP  RH WIND       PRES   REMARKS
BILLINGS       CLOUDY    20  17  88 N8        29.63R WCI  10
GREAT FALLS    LGT SNOW  10   7  87 E5        29.62F FOG     WCI   2
REGINA         PTCLDY    -4  -8  84 NW6       29.83S WCI -16
ESTEVAN        CLOUDY     3  -2  78 NW9       29.83S WCI -11
$$




USA.gov is the U.S. government's official web portal to all federal, state and local government web resources and services.